{"data":{"norad_id":40716,"epoch":"2026-09-20T04:26:16.302624Z","epoch_age_seconds":45473,"freshness":"FRESH","line1":"1 40716U 15032B   26263.18491091  .00000586  00000+0  73256-4 0  9996","line2":"2 40716  97.6361 126.2085 0007535 101.1617 259.0446 14.85831082604014","mean_motion":14.85831082,"eccentricity":0.0007535,"inclination_deg":97.6361,"raan_deg":126.2085,"arg_perigee_deg":101.1617,"mean_anomaly_deg":259.0446,"bstar":7.3256e-5,"rev_number":60401,"period_min":96.91545811935,"perigee_km":605.71216472078,"apogee_km":616.24476172385,"semimajor_km":6989.1154632223,"source":"CELESTRAK","updated_at":"2026-09-20T09:00:34.587160Z"}}